Location: Unspecified
(35.6961°N, 0.0000°E)
Time: 15:22:46
(UTC+00:00)

Vanguard 3 - Pass Details

Date: 01 June 2019
Orbit: 508 x 3263 km, 33.3° (Epoch: 16 June)

Event Time Altitude Azimuth Distance (km) Brightness Sun altitude
Rises 18:13:26 0° 242° (WSW) 2,597 10.4 9.7°
Reaches altitude 10° 18:15:29 10° 234° (SW) 1,760 9.5 9.3°
Maximum altitude 18:19:07 44° 161° (SSE) 848 7.1 8.6°
Drops below altitude 10° 18:24:04 10° 90° (E) 2,403 9.0 7.7°
Sets 18:27:18 0° 84° (E) 3,705 10.0 7.1°
